�������l�o���
Date,Time,MP-1(��Sv/h),MP-2(��Sv/h),MP-3(��Sv/h),MP-4(��Sv/h),MP-5(��Sv/h),MP-6(��Sv/h),MP-7(��Sv/h),MP-8(��Sv/h),����,����(m/s),���J
2019/09/12,00:00,0.729,1.017,0.707,1.259,0.914,0.416,0.725,0.688,�k�k��,5.9,��
2019/09/12,00:10,0.727,1.017,0.705,1.256,0.917,0.417,0.725,0.688,�k��,7.8,��
2019/09/12,00:20,0.727,1.017,0.706,1.256,0.914,0.415,0.725,0.687,�k��,9.9,��
2019/09/12,00:30,0.727,1.014,0.706,1.261,0.915,0.416,0.726,0.687,�k��,8.5,��
2019/09/12,00:40,0.729,1.017,0.708,1.261,0.917,0.415,0.727,0.688,�k�k��,4.9,��
2019/09/12,00:50,0.728,1.018,0.708,1.259,0.915,0.416,0.726,0.687,�k,3.7,��
2019/09/12,01:00,0.728,1.020,0.708,1.261,0.915,0.415,0.726,0.687,�k�k��,3.4,��
2019/09/12,01:10,0.729,1.018,0.708,1.260,0.916,0.414,0.725,0.687,�k,2.6,��
2019/09/12,01:20,0.727,1.018,0.707,1.259,0.914,0.414,0.726,0.688,�k,2.6,��
2019/09/12,01:30,0.727,1.021,0.707,1.259,0.914,0.416,0.725,0.688,�k,2.3,��
2019/09/12,01:40,0.729,1.018,0.708,1.258,0.914,0.416,0.726,0.689,�k,3.3,��
2019/09/12,01:50,0.728,1.018,0.710,1.263,0.916,0.416,0.726,0.689,�k�k��,2.6,��
2019/09/12,02:00,0.728,1.019,0.706,1.260,0.915,0.414,0.726,0.688,���k��,3.7,��
2019/09/12,02:10,0.728,1.019,0.706,1.261,0.914,0.418,0.726,0.688,���k��,4.5,��
2019/09/12,02:20,0.728,1.018,0.707,1.260,0.915,0.416,0.726,0.687,�k��,5.3,��
2019/09/12,02:30,0.728,1.018,0.708,1.260,0.916,0.416,0.726,0.687,�k��,5.2,��
2019/09/12,02:40,0.728,1.020,0.706,1.259,0.917,0.415,0.727,0.688,�k�k��,4.5,��
2019/09/12,02:50,0.729,1.022,0.707,1.261,0.917,0.416,0.723,0.689,�k�k��,6.5,��
2019/09/12,03:00,0.728,1.020,0.707,1.263,0.917,0.417,0.726,0.688,�k�k��,8.9,��
2019/09/12,03:10,0.728,1.019,0.708,1.260,0.918,0.417,0.726,0.689,�k�k��,8.3,��
2019/09/12,03:20,0.728,1.019,0.706,1.260,0.916,0.416,0.725,0.687,�k�k��,6.1,��
2019/09/12,03:30,0.725,1.020,0.707,1.259,0.917,0.416,0.726,0.688,�k�k��,4.3,��
2019/09/12,03:40,0.727,1.018,0.707,1.259,0.916,0.416,0.726,0.688,�k�k��,3.5,��
2019/09/12,03:50,0.726,1.021,0.706,1.259,0.918,0.415,0.726,0.689,�k�k��,3.3,��
2019/09/12,04:00,0.727,1.020,0.709,1.263,0.915,0.416,0.727,0.689,�k,3.8,��
2019/09/12,04:10,0.726,1.021,0.706,1.261,0.916,0.416,0.725,0.689,�k,4.3,��
2019/09/12,04:20,0.726,1.020,0.708,1.260,0.914,0.415,0.724,0.689,�k,4.2,��
2019/09/12,04:30,0.727,1.020,0.708,1.262,0.916,0.416,0.726,0.688,�k�k��,3.7,��
2019/09/12,04:40,0.726,1.021,0.706,1.261,0.917,0.416,0.725,0.688,�k�k��,3.1,��
2019/09/12,04:50,0.728,1.018,0.706,1.263,0.918,0.415,0.725,0.687,�k��,3.1,��
2019/09/12,05:00,0.729,1.018,0.706,1.261,0.914,0.418,0.727,0.688,�k��,2.3,��
2019/09/12,05:10,0.726,1.020,0.706,1.262,0.914,0.415,0.727,0.688,�k�k��,2.2,��
2019/09/12,05:20,0.726,1.018,0.707,1.262,0.917,0.415,0.726,0.689,�k��,3.1,��
2019/09/12,05:30,0.728,1.019,0.705,1.261,0.917,0.417,0.726,0.686,�k�k��,5.5,��
2019/09/12,05:40,0.726,1.017,0.705,1.262,0.914,0.414,0.727,0.686,�k�k��,5.7,��
2019/09/12,05:50,0.727,1.019,0.707,1.263,0.917,0.416,0.727,0.686,�k�k��,5.8,��
2019/09/12,06:00,0.726,1.022,0.706,1.261,0.915,0.415,0.727,0.686,�k�k��,4.7,��
2019/09/12,06:10,0.728,1.019,0.706,1.261,0.917,0.416,0.724,0.689,�k�k��,6.3,��
2019/09/12,06:20,0.728,1.020,0.706,1.261,0.918,0.418,0.726,0.687,�k�k��,5.8,��
2019/09/12,06:30,0.729,1.020,0.705,1.261,0.917,0.417,0.744,0.688,�k�k��,5.6,��
2019/09/12,06:40,0.727,1.020,0.706,1.263,0.918,0.416,0.727,0.687,�k�k��,6.7,��
2019/09/12,06:50,0.728,1.019,0.709,1.264,0.917,0.415,0.729,0.689,�k,5.8,��
2019/09/12,07:00,0.727,1.022,0.707,1.263,0.915,0.416,0.726,0.689,�k�k��,6.9,��
2019/09/12,07:10,0.729,1.019,0.707,1.263,0.917,0.414,0.726,0.687,�k�k��,6.2,��
2019/09/12,07:20,0.727,1.019,0.706,1.264,0.917,0.414,0.727,0.688,�k�k��,5.0,��
2019/09/12,07:30,0.730,1.020,0.708,1.263,0.917,0.416,0.727,0.688,�k,5.0,��
2019/09/12,07:40,0.729,1.020,0.707,1.264,0.917,0.415,0.728,0.689,�k�k��,4.3,��
2019/09/12,07:50,0.731,1.019,0.706,1.261,0.916,0.414,0.726,0.688,�k�k��,4.6,��
2019/09/12,08:00,0.732,1.019,0.706,1.264,0.919,0.415,0.727,0.691,�k�k��,5.7,��
2019/09/12,08:10,0.730,1.022,0.709,1.264,0.920,0.414,0.726,0.689,�k�k��,5.6,��
2019/09/12,08:20,0.728,1.017,0.708,1.265,0.917,0.414,0.726,0.688,�k�k��,4.6,��
2019/09/12,08:30,0.729,1.018,0.705,1.267,0.917,0.415,0.728,0.688,�k�k��,4.3,��
2019/09/12,08:40,0.728,1.018,0.707,1.265,0.915,0.416,0.727,0.686,�k�k��,6.3,��
2019/09/12,08:50,0.729,1.018,0.707,1.266,0.914,0.414,0.726,0.685,�k��,7.6,��
2019/09/12,09:00,0.727,1.018,0.706,1.265,0.919,0.416,0.727,0.687,�k��,8.6,��
2019/09/12,09:10,0.730,1.020,0.707,1.267,0.920,0.415,0.727,0.688,�k�k��,8.0,��
2019/09/12,09:20,0.730,1.019,0.706,1.266,0.918,0.414,0.727,0.688,�k�k��,7.3,��
2019/09/12,09:30,0.732,1.019,0.705,1.267,0.923,0.415,0.727,0.687,�k�k��,6.7,��
2019/09/12,09:40,0.732,1.021,0.706,1.269,0.923,0.414,0.727,0.689,�k�k��,5.2,��
2019/09/12,09:50,0.729,1.017,0.707,1.268,0.923,0.415,0.730,0.690,�k�k��,4.3,��
2019/09/12,10:00,0.732,1.022,0.707,1.268,0.919,0.417,0.728,0.689,�k�k��,5.5,��
2019/09/12,10:10,0.730,1.021,0.707,1.270,0.920,0.417,0.727,0.688,�k�k��,5.9,��
2019/09/12,10:20,0.733,1.022,0.710,1.269,0.922,0.416,0.729,0.688,�k�k��,7.1,��
2019/09/12,10:30,0.733,1.023,0.708,1.271,0.924,0.417,0.728,0.689,�k�k��,3.8,��
2019/09/12,10:40,0.733,1.022,0.710,1.271,0.925,0.417,0.728,0.689,�k��,5.1,��
2019/09/12,10:50,0.734,1.024,0.708,1.270,0.928,0.417,0.727,0.688,�k�k��,4.9,��
2019/09/12,11:00,0.734,1.026,0.712,1.271,0.927,0.415,0.728,0.688,�k��,3.8,��
2019/09/12,11:10,0.735,1.027,0.711,1.270,0.926,0.417,0.729,0.690,�k��,6.1,��
2019/09/12,11:20,0.737,1.026,0.712,1.273,0.927,0.417,0.730,0.689,�k��,8.8,��
2019/09/12,11:30,0.735,1.030,0.712,1.274,0.925,0.418,0.731,0.689,�k�k��,8.1,��
2019/09/12,11:40,0.736,1.026,0.711,1.273,0.928,0.417,0.732,0.691,�k�k��,7.7,��
2019/09/12,11:50,0.736,1.032,0.713,1.274,0.927,0.418,0.732,0.690,�k,5.1,��
2019/09/12,12:00,0.733,1.033,0.713,1.272,0.928,0.417,0.729,0.689,�k��,4.8,��
2019/09/12,12:10,0.734,1.036,0.715,1.272,0.929,0.417,0.730,0.689,�k��,5.0,��
2019/09/12,12:20,0.734,1.035,0.713,1.274,0.930,0.417,0.728,0.690,�k��,6.1,��
2019/09/12,12:30,0.737,1.037,0.713,1.272,0.928,0.418,0.730,0.690,�k��,6.5,��
2019/09/12,12:40,0.736,1.036,0.714,1.274,0.927,0.416,0.729,0.690,�k��,7.1,��
2019/09/12,12:50,0.735,1.034,0.713,1.276,0.930,0.415,0.730,0.691,�k��,7.2,��
2019/09/12,13:00,0.736,1.034,0.715,1.275,0.930,0.417,0.729,0.689,�k��,6.1,��
2019/09/12,13:10,0.735,1.033,0.713,1.275,0.929,0.418,0.729,0.690,�k��,6.0,��
2019/09/12,13:20,0.736,1.031,0.712,1.273,0.930,0.418,0.729,0.691,�k��,6.5,��
2019/09/12,13:30,0.737,1.031,0.712,1.276,0.931,0.418,0.731,0.690,�k��,5.9,��
2019/09/12,13:40,0.737,1.033,0.713,1.276,0.931,0.418,0.730,0.690,�k��,6.1,��
2019/09/12,13:50,0.737,1.034,0.713,1.275,0.933,0.417,0.729,0.689,�k��,4.9,��
2019/09/12,14:00,0.737,1.033,0.713,1.278,0.932,0.417,0.730,0.691,�k�k��,4.0,��
2019/09/12,14:10,0.735,1.033,0.713,1.278,0.931,0.417,0.730,0.691,�k��,4.0,��
2019/09/12,14:20,0.737,1.031,0.714,1.276,0.932,0.418,0.729,0.690,�k��,3.9,��
2019/09/12,14:30,0.738,1.034,0.713,1.276,0.931,0.420,0.732,0.691,�k�k��,3.8,��
2019/09/12,14:40,0.738,1.035,0.713,1.278,0.933,0.420,0.730,0.690,�k��,4.5,��
2019/09/12,14:50,0.736,1.034,0.715,1.273,0.931,0.419,0.730,0.690,�k��,3.7,��
2019/09/12,15:00,0.737,1.038,0.714,1.274,0.932,0.419,0.729,0.692,�k��,3.2,��
2019/09/12,15:10,0.737,1.039,0.714,1.278,0.932,0.419,0.728,0.691,���k��,2.9,��
2019/09/12,15:20,0.737,1.035,0.715,1.276,0.930,0.419,0.731,0.690,�k��,2.6,��
2019/09/12,15:30,0.737,1.038,0.713,1.276,0.932,0.418,0.730,0.689,�k,2.9,��
2019/09/12,15:40,0.738,1.035,0.713,1.277,0.933,0.418,0.729,0.691,�k,3.3,��
2019/09/12,15:50,0.739,1.039,0.714,1.275,0.935,0.419,0.730,0.691,�k,2.3,��
2019/09/12,16:00,0.736,1.038,0.716,1.274,0.934,0.419,0.730,0.690,�k�k��,2.2,��
2019/09/12,16:10,0.737,1.041,0.714,1.275,0.934,0.419,0.730,0.690,�k��,2.6,��
2019/09/12,16:20,0.736,1.042,0.714,1.274,0.936,0.421,0.731,0.689,�k��,2.6,��
2019/09/12,16:30,0.737,1.042,0.715,1.274,0.936,0.421,0.729,0.691,�k��,3.5,��
2019/09/12,16:40,0.737,1.039,0.715,1.277,0.932,0.421,0.730,0.688,�k��,3.5,��
2019/09/12,16:50,0.738,1.041,0.715,1.273,0.932,0.420,0.731,0.691,�k�k��,2.6,��
2019/09/12,17:00,0.737,1.039,0.718,1.277,0.934,0.420,0.730,0.692,�k�k��,3.4,��
2019/09/12,17:10,0.738,1.040,0.719,1.278,0.935,0.421,0.730,0.692,�k��,3.2,��
2019/09/12,17:20,0.738,1.044,0.719,1.274,0.936,0.420,0.731,0.696,�k�k��,3.0,��
2019/09/12,17:30,0.738,1.046,0.720,1.278,0.936,0.419,0.731,0.693,�k��,2.3,��
2019/09/12,17:40,0.738,1.043,0.718,1.276,0.934,0.422,0.730,0.694,�k�k��,1.9,��
2019/09/12,17:50,0.740,1.045,0.720,1.279,0.935,0.422,0.732,0.693,�k�k��,1.2,��
2019/09/12,18:00,0.740,1.044,0.718,1.279,0.936,0.420,0.731,0.693,�k�k��,1.2,��
2019/09/12,18:10,0.738,1.045,0.719,1.280,0.937,0.420,0.733,0.691,�k,0.8,��
2019/09/12,18:20,0.740,1.043,0.720,1.281,0.936,0.420,0.732,0.694,�k��,0.9,��
2019/09/12,18:30,0.739,1.044,0.719,1.279,0.935,0.420,0.732,0.694,���k��,1.2,��
2019/09/12,18:40,0.738,1.047,0.718,1.281,0.936,0.420,0.731,0.692,��,1.7,��
2019/09/12,18:50,0.739,1.047,0.719,1.282,0.935,0.420,0.732,0.695,��,2.2,��
2019/09/12,19:00,0.740,1.043,0.718,1.284,0.937,0.420,0.733,0.692,��,1.1,��
2019/09/12,19:10,0.737,1.045,0.719,1.278,0.935,0.422,0.731,0.693,��,2.3,��
2019/09/12,19:20,0.741,1.045,0.717,1.281,0.936,0.421,0.732,0.694,���k��,2.3,��
2019/09/12,19:30,0.740,1.044,0.718,1.280,0.937,0.421,0.732,0.692,���k��,2.8,��
2019/09/12,19:40,0.739,1.044,0.717,1.279,0.937,0.421,0.731,0.693,���k��,2.0,��
2019/09/12,19:50,0.739,1.043,0.720,1.282,0.936,0.420,0.733,0.693,���k��,2.6,��
2019/09/12,20:00,0.739,1.044,0.719,1.281,0.935,0.420,0.733,0.693,���k��,2.8,��
2019/09/12,20:10,0.739,1.044,0.718,1.279,0.935,0.420,0.733,0.692,���k��,2.5,��
2019/09/12,20:20,0.740,1.044,0.718,1.278,0.938,0.420,0.732,0.691,�k��,2.3,��
2019/09/12,20:30,0.739,1.045,0.718,1.280,0.937,0.419,0.731,0.692,�k�k��,2.6,��
2019/09/12,20:40,0.738,1.043,0.719,1.280,0.934,0.422,0.732,0.694,�k,3.4,��
2019/09/12,20:50,0.737,1.044,0.720,1.281,0.936,0.421,0.732,0.693,�k�k��,4.1,��
2019/09/12,21:00,0.737,1.045,0.719,1.281,0.936,0.422,0.731,0.693,���k��,2.2,��
2019/09/12,21:10,0.737,1.043,0.718,1.280,0.938,0.421,0.731,0.693,���k��,2.6,��
2019/09/12,21:20,0.738,1.044,0.720,1.283,0.937,0.421,0.730,0.693,���k��,2.6,��
2019/09/12,21:30,0.739,1.044,0.718,1.281,0.935,0.420,0.731,0.691,�k��,2.9,��
2019/09/12,21:40,0.738,1.044,0.719,1.281,0.935,0.420,0.733,0.692,�k��,2.3,��
2019/09/12,21:50,0.738,1.042,0.719,1.282,0.936,0.420,0.732,0.691,���k��,2.3,��
2019/09/12,22:00,0.739,1.044,0.719,1.282,0.936,0.422,0.731,0.693,���k��,2.9,��
2019/09/12,22:10,0.739,1.040,0.719,1.279,0.935,0.420,0.731,0.694,���k��,3.0,��
2019/09/12,22:20,0.739,1.042,0.718,1.278,0.935,0.421,0.732,0.693,�k��,3.4,��
2019/09/12,22:30,0.737,1.045,0.719,1.279,0.937,0.421,0.733,0.693,�k��,3.2,��
2019/09/12,22:40,0.739,1.045,0.718,1.281,0.937,0.420,0.732,0.690,�k�k��,4.0,��
2019/09/12,22:50,0.739,1.044,0.720,1.281,0.935,0.421,0.732,0.692,�k�k��,3.8,��
2019/09/12,23:00,0.738,1.043,0.717,1.281,0.936,0.421,0.732,0.693,�k��,3.8,��
2019/09/12,23:10,0.738,1.043,0.719,1.280,0.938,0.420,0.732,0.692,�k��,3.8,��
2019/09/12,23:20,0.739,1.043,0.718,1.282,0.937,0.421,0.732,0.691,�k��,4.3,��
2019/09/12,23:30,0.737,1.042,0.719,1.279,0.937,0.422,0.733,0.694,�k�k��,3.9,��
2019/09/12,23:40,0.738,1.043,0.718,1.283,0.936,0.420,0.732,0.693,�k�k��,4.1,��
2019/09/12,23:50,0.738,1.041,0.719,1.281,0.935,0.422,0.731,0.693,�k�k��,3.8,��
